Theta_e
308 308 309 309 310 300 307 308 304 307 312 309 305 306 307 307 304 301 309 310 315 319 322 325 325 325 325 327 328 329 331 332 335 334 336 337 340 340 343 344 344 347 347 350 349 348 348 350 350 351 353 355 357 358 360 362 365 366 366 368 367 368 366
307 310 310 309 311 310 308 303 307 313 314 312 307 300 303 301 298 301 305 306 308 310 308 323 323 322 323 323 325 326 330 331 332 332 334 336 338 340 343 347 348 349 349 349 350 351 350 351 352 352 357 357 359 358 359 362 365 366 364 367 365 366 367
307 309 309 307 310 312 307 306 312 305 300 300 306 304 297 297 296 300 303 307 309 309 310 318 318 319 320 322 324 326 326 328 329 331 333 336 338 340 341 343 346 348 349 351 352 350 350 351 352 352 353 355 355 357 361 362 363 363 361 360 363 364 366
306 307 306 299 303 310 312 311 309 312 308 305 303 305 306 305 299 299 300 305 303 311 313 317 317 319 320 321 321 323 325 327 328 329 330 333 335 338 340 342 342 344 348 349 352 350 352 355 352 352 351 354 356 358 360 360 358 360 362 364 363 363 363
305 300 304 302 304 302 304 305 305 306 306 311 309 308 305 303 301 300 300 298 306 313 319 318 318 319 320 321 321 323 325 327 328 329 330 332 334 337 340 342 344 345 348 348 348 352 352 354 355 354 355 354 356 355 355 356 355 355 361 359 359 364 362
299 302 306 304 304 305 305 304 303 306 303 303 300 300 307 305 302 298 299 298 307 315 321 319 319 320 320 322 322 322 325 326 328 329 330 331 332 335 337 339 342 345 348 350 347 351 355 351 351 350 351 354 355 355 354 356 355 357 356 353 356 362 364
301 303 305 308 307 307 306 307 305 308 307 306 303 296 301 304 305 307 306 302 304 316 320 320 320 321 321 322 323 323 324 326 327 328 329 331 331 331 333 336 340 344 348 350 351 351 351 352 351 352 351 353 352 355 353 353 353 354 355 355 356 364 363
303 306 306 307 307 306 305 306 307 306 304 306 304 304 306 304 304 303 303 301 305 316 321 321 321 322 322 323 323 322 323 325 326 328 329 328 329 330 331 334 337 340 343 347 348 352 351 353 354 354 356 355 357 355 352 351 352 354 356 356 357 361 362
299 300 302 303 306 305 303 304 306 306 306 306 307 306 308 303 304 304 302 298 302 314 320 321 319 319 320 320 322 323 322 324 325 327 328 327 328 328 329 330 332 333 336 340 342 346 350 351 351 352 351 352 353 356 355 355 351 351 353 357 357 362 361
290 289 291 293 297 300 303 304 303 304 304 305 304 301 304 297 307 307 303 302 309 314 318 318 318 319 319 320 321 322 323 324 324 326 327 329 327 327 328 329 329 329 331 336 340 342 344 346 349 352 354 352 355 355 355 356 354 353 355 356 356 356 359
297 299 301 303 305 303 300 300 302 302 304 305 305 305 302 299 304 304 307 307 308 310 312 314 316 317 317 318 320 320 320 323 325 327 327 328 328 327 327 328 328 329 329 331 335 338 340 342 345 349 350 351 351 355 357 357 357 356 358 355 358 354 358
301 300 300 302 303 301 301 300 300 301 302 303 304 301 300 310 302 298 309 311 307 309 312 313 314 316 317 318 319 320 321 322 323 324 326 329 326 327 327 327 327 328 328 329 331 335 336 338 341 344 346 346 349 351 353 356 356 353 356 359 356 355 355
299 300 300 301 301 301 301 300 300 300 301 303 303 304 304 308 304 302 310 312 309 310 312 313 315 317 317 317 318 320 321 322 324 325 324 324 324 326 325 326 327 328 326 328 329 331 333 336 338 340 342 344 348 350 352 355 356 357 359 359 355 357 356
298 299 299 300 299 299 299 300 300 300 300 301 302 303 304 306 309 311 311 312 309 311 313 314 315 318 318 318 321 321 321 320 323 323 323 323 323 324 324 326 326 328 328 330 329 330 332 334 335 337 339 342 344 346 348 352 355 356 357 355 356 356 356
297 298 298 298 298 298 298 299 300 299 300 300 301 302 304 307 307 308 310 309 309 312 316 315 317 318 318 319 318 318 319 320 320 321 322 323 323 324 325 327 326 328 329 329 330 330 330 331 332 333 337 340 341 343 346 349 352 355 358 355 353 357 355
296 298 297 297 298 297 297 298 298 299 298 298 300 300 304 304 305 308 308 307 307 312 315 316 317 317 317 316 318 318 319 319 320 320 321 322 323 324 325 326 327 328 327 329 329 329 329 330 330 332 336 337 337 339 345 346 350 356 356 354 356 356 355
295 298 297 296 296 296 293 295 298 300 300 301 302 303 305 306 307 305 304 306 311 312 315 314 314 315 315 316 316 317 319 320 319 321 322 323 323 324 325 326 327 327 328 329 330 329 331 332 333 333 333 335 337 340 344 347 351 352 352 353 353 356 356
296 297 297 296 293 288 290 301 303 302 300 301 300 301 302 307 309 307 311 311 314 314 314 314 312 313 315 317 318 320 319 318 320 319 322 322 324 324 324 325 326 328 329 330 330 332 332 332 332 331 333 333 336 339 343 346 348 349 349 351 351 351 355
296 298 297 291 287 290 301 304 304 304 304 303 302 303 303 307 307 311 312 312 313 314 314 314 315 316 316 317 318 318 318 321 319 319 320 321 322 323 324 325 325 328 329 330 331 331 331 332 332 333 333 333 334 337 340 341 343 345 347 348 348 349 351
299 297 294 284 288 300 303 302 304 305 303 302 302 303 306 307 306 310 310 312 312 313 313 314 316 316 316 317 318 319 319 320 321 319 318 319 320 321 322 324 325 327 327 328 330 330 334 332 332 333 332 333 332 335 339 340 342 343 344 345 346 348 349
293 295 293 293 301 299 300 299 302 301 300 301 299 296 301 305 308 308 309 311 312 312 313 313 314 315 314 313 316 318 317 317 319 319 319 319 320 320 322 322 324 326 326 327 329 332 332 333 332 331 333 334 332 332 335 338 341 341 342 340 341 343 347
298 295 292 293 293 289 296 302 305 306 309 310 308 304 302 307 310 310 311 311 310 310 310 311 312 310 308 306 311 316 317 317 317 317 317 318 319 319 320 322 322 326 326 325 326 329 331 333 333 333 333 332 333 333 333 334 337 339 338 338 338 340 340
297 294 291 291 289 293 302 303 306 308 309 308 306 301 297 309 310 309 310 309 309 310 309 311 309 305 303 306 312 316 317 317 316 315 316 316 317 317 318 319 319 321 324 324 326 327 328 328 330 334 334 334 333 332 332 332 335 337 337 337 337 338 339
297 295 291 289 296 296 304 306 306 306 308 305 304 291 292 309 310 309 309 310 309 310 311 310 308 306 303 307 312 314 315 314 316 315 315 316 316 316 317 318 320 322 323 324 323 324 323 326 329 332 331 331 332 332 332 332 332 334 336 336 337 339 340
294 294 294 295 297 306 308 306 307 307 305 303 294 289 303 311 311 311 311 311 311 312 311 309 306 310 311 312 312 312 313 312 313 315 315 316 315 316 316 317 321 319 320 320 320 322 325 327 326 328 330 329 329 331 332 331 330 331 333 336 337 338 339
294 295 293 292 296 307 310 309 308 308 301 292 291 306 313 312 311 311 311 310 311 310 310 309 309 311 311 311 310 311 311 310 312 313 314 315 316 317 318 320 319 319 318 319 321 321 324 323 324 326 328 328 329 330 330 330 332 331 333 334 336 338 338
297 296 294 291 287 304 311 308 306 307 297 301 310 311 313 313 312 311 310 310 310 310 309 309 310 310 309 309 310 310 311 311 311 312 313 313 314 315 317 318 319 318 318 319 318 319 320 321 323 325 325 327 328 329 328 330 331 332 332 333 335 335 336
292 293 290 291 300 307 312 308 301 306 305 312 313 311 309 311 311 309 310 311 311 311 309 309 308 309 309 309 310 311 311 311 313 313 314 315 315 315 315 316 318 319 319 319 318 319 319 322 323 324 326 326 327 328 330 332 332 332 332 333 334 333 333
298 296 299 305 308 310 311 310 310 312 313 315 314 312 311 311 310 312 310 310 312 312 311 310 309 308 309 309 310 309 309 310 311 312 313 313 314 314 315 315 318 318 318 318 319 320 320 322 323 325 325 325 326 326 330 334 333 332 332 331 331 331 332
307 307 308 310 309 310 310 309 311 312 314 315 313 311 308 309 310 311 310 311 311 311 312 309 310 309 309 309 309 310 310 310 310 313 313 313 315 314 315 316 317 318 317 318 318 319 321 323 323 324 324 324 324 326 330 332 333 332 331 331 330 331 331
299 294 307 306 307 309 310 309 311 313 315 314 312 310 309 310 311 311 310 311 311 311 311 310 310 309 309 309 309 311 311 310 312 312 313 314 314 315 315 316 317 316 317 316 317 318 319 322 322 322 323 323 325 327 328 329 330 331 332 331 330 330 331
299 300 306 308 310 310 310 309 309 310 312 313 313 312 312 312 312 312 312 312 310 311 310 311 310 310 310 309 310 310 310 311 312 312 312 314 314 315 316 316 317 316 316 316 317 318 318 320 321 322 323 324 325 326 326 327 330 331 330 330 328 328 329
303 305 306 307 309 310 310 310 311 311 312 312 312 313 312 312 311 311 311 312 311 310 310 311 310 310 310 311 311 310 311 311 312 312 313 314 315 315 315 316 316 315 316 316 317 317 317 319 320 321 322 323 325 326 326 327 329 329 328 328 328 328 328
299 300 304 307 300 301 307 309 310 310 312 311 311 312 311 311 311 312 311 311 312 310 310 311 310 310 310 311 312 311 311 311 312 313 313 313 313 314 315 315 315 315 316 315 315 317 318 319 320 321 322 323 325 325 326 327 328 328 327 327 326 326 327
298 306 309 310 308 307 308 309 311 312 312 312 310 311 311 312 312 312 312 310 311 311 312 312 311 311 311 311 312 310 310 311 312 313 313 312 312 312 313 313 313 314 314 315 315 316 317 319 319 320 321 323 324 325 326 327 327 327 327 325 324 325 326
307 310 310 311 309 306 309 311 312 311 313 311 311 311 312 312 312 312 311 312 311 311 312 312 312 311 311 310 310 310 311 311 312 312 312 312 312 312 313 313 313 314 315 315 315 315 317 318 318 319 319 321 323 324 326 327 327 327 326 325 323 323 324
306 312 311 311 312 312 312 313 313 313 313 313 311 311 311 311 311 311 311 312 313 312 311 310 310 311 310 309 310 310 310 310 311 311 312 312 312 312 313 313 313 313 314 315 315 315 316 316 317 319 319 320 322 323 325 326 327 326 326 325 325 323 324
Wind_Speed
11 3 3 9 8 7 11 10 11 9 7 11 9 10 12 11 11 12 7 10 11 13 10 11 10 9 10 9 11 11 11 9 9 10 9 7 7 7 8 5 5 7 9 11 11 13 13 12 11 11 13 14 15 15 16 17 17 16 17 16 15 14 14
7 5 6 5 10 6 6 13 11 6 6 7 7 10 10 13 14 11 15 12 12 12 8 10 10 10 10 8 10 10 11 10 10 11 11 9 7 5 2 8 6 8 9 10 12 8 11 12 14 14 10 11 11 15 16 16 15 15 16 17 16 14 14
8 6 5 9 11 10 9 4 13 9 10 8 8 7 11 13 13 10 14 15 9 10 8 9 10 10 10 9 7 9 11 11 12 11 12 11 9 7 4 3 8 8 8 8 9 11 12 15 15 15 15 15 15 14 13 16 18 18 18 16 15 13 14
10 9 10 10 10 13 11 7 8 8 6 8 10 9 5 9 11 12 14 15 6 1 8 5 9 7 5 8 6 8 11 12 12 11 12 12 11 10 10 8 3 4 6 10 8 11 9 5 11 13 14 12 15 13 15 16 16 17 18 15 15 15 16
7 9 10 6 7 13 10 6 9 9 7 4 7 10 10 9 11 13 10 11 9 9 8 8 8 5 5 5 7 6 8 10 11 13 12 12 12 11 10 10 7 5 3 9 10 9 10 9 4 5 3 5 7 13 17 17 16 18 16 16 16 15 14
9 5 7 4 7 8 4 11 10 4 8 10 8 8 9 13 9 8 12 9 10 10 6 8 7 7 5 5 4 7 9 10 11 11 13 13 12 12 11 11 9 8 8 5 9 5 6 10 9 8 4 4 15 22 13 13 14 14 15 17 17 16 14
5 9 6 6 9 7 7 6 5 7 9 10 8 9 11 11 11 2 10 6 9 9 8 6 6 6 5 6 6 7 8 9 10 10 12 12 13 13 12 12 11 10 9 9 7 8 7 7 5 2 3 8 11 14 14 13 14 14 15 15 15 14 14
6 5 4 4 5 7 8 8 4 5 7 4 8 8 4 8 12 9 8 8 7 6 6 6 7 7 7 7 6 6 7 8 9 10 12 13 12 13 13 12 10 12 13 12 9 6 7 5 7 9 8 3 6 11 9 11 12 14 13 9 10 12 14
5 5 5 6 6 6 8 8 4 5 9 10 8 7 5 7 10 12 9 9 10 10 9 8 8 9 8 7 7 7 7 7 7 9 11 11 12 13 14 13 13 12 13 13 13 12 9 9 9 9 8 9 8 1 9 11 8 11 10 8 9 12 13
10 10 11 10 11 10 7 1 1 4 7 7 6 8 2 5 2 8 6 9 11 11 10 9 9 8 8 8 7 7 7 8 8 8 9 10 11 12 13 14 14 14 13 13 15 15 13 12 10 11 10 8 9 6 5 3 9 8 7 8 11 10 14
7 6 7 6 5 9 9 8 3 0 3 3 9 7 8 10 8 1 9 14 14 15 13 11 10 8 9 8 8 7 6 7 7 8 8 10 10 11 12 13 12 12 14 16 15 16 15 15 14 11 10 8 8 4 4 5 7 4 11 12 13 18 15
5 7 6 5 6 4 4 4 6 1 1 2 7 9 7 7 7 6 9 16 16 14 14 11 9 10 7 7 7 7 6 6 6 7 8 10 11 12 12 13 15 14 14 15 15 15 16 15 15 12 11 10 8 8 9 9 6 6 0 10 10 11 10
1 2 6 6 4 5 2 1 1 2 1 3 7 3 4 6 8 4 12 13 13 13 13 12 10 9 8 6 6 7 6 6 7 8 9 10 11 12 12 13 12 14 14 13 15 15 15 16 15 14 13 12 10 9 10 9 10 11 9 5 8 5 8
4 2 3 1 2 2 5 6 3 2 5 3 1 1 3 2 6 12 12 10 12 9 13 12 9 9 10 6 1 4 6 6 6 7 9 10 11 12 12 12 12 12 13 13 13 14 15 16 16 15 14 13 12 10 10 11 10 11 11 12 11 7 9
5 4 4 7 5 3 6 6 5 3 5 4 4 2 3 4 8 9 10 10 9 9 11 10 9 5 8 9 5 6 4 4 6 7 8 9 10 11 11 11 12 12 12 13 13 13 13 15 16 14 13 13 13 13 12 10 11 11 9 9 11 7 3
7 6 6 5 6 6 8 8 7 7 8 8 6 7 6 6 7 7 8 9 9 7 9 13 10 8 9 7 7 6 2 5 5 5 8 9 9 10 10 11 11 12 12 13 13 13 13 13 14 14 13 14 13 13 12 13 11 8 7 6 5 6 7
5 9 4 5 4 7 9 12 11 9 7 6 6 3 4 3 4 9 9 8 7 9 9 10 10 12 8 7 5 6 4 3 4 4 6 7 8 9 9 10 11 12 12 12 12 12 11 10 10 12 13 11 12 11 11 12 10 10 8 7 6 5 4
4 7 5 3 7 9 5 5 8 10 8 6 6 7 6 4 5 2 6 6 11 8 4 6 9 5 10 6 4 2 2 3 2 3 6 6 6 8 9 9 10 10 10 10 11 11 11 11 11 10 9 11 10 10 10 9 9 9 8 7 7 6 5
5 6 4 7 9 6 9 5 8 5 5 2 3 1 5 6 2 7 9 10 13 10 10 1 1 5 5 4 9 13 7 0 1 2 3 5 5 7 7 8 10 9 10 11 11 11 11 10 10 9 9 10 10 10 10 9 10 9 8 8 7 7 7
3 3 6 6 4 9 6 7 4 6 2 3 4 3 3 3 4 4 8 6 6 6 2 5 3 5 3 2 2 3 9 6 2 5 3 4 6 7 7 7 7 8 9 10 10 10 10 9 10 9 10 9 9 10 10 9 10 9 9 9 9 9 9
7 6 7 6 8 7 8 7 7 5 5 7 8 6 10 10 5 6 6 9 9 8 8 6 7 4 4 6 7 9 7 6 3 0 3 4 5 6 6 7 6 6 8 8 8 8 9 9 10 10 10 9 9 9 10 10 10 10 9 10 11 11 11
6 7 7 8 8 9 10 7 9 6 5 5 2 4 5 8 8 5 6 8 8 8 5 6 3 3 5 6 7 7 7 6 6 2 2 2 3 5 6 5 5 6 7 8 8 7 9 7 9 9 9 10 8 8 9 10 10 10 10 10 11 11 11
6 8 7 5 6 2 9 11 10 8 5 3 2 5 6 9 9 6 7 7 8 4 6 5 3 4 6 2 7 5 6 3 3 2 3 5 6 6 6 6 7 7 8 8 9 8 8 8 9 9 8 9 8 9 9 9 9 10 10 10 11 11 11
7 6 7 7 6 5 7 9 8 7 4 5 6 8 5 13 9 7 7 8 8 5 3 1 3 3 5 7 3 6 1 3 2 3 4 5 7 7 8 8 8 8 8 8 7 8 9 9 9 9 8 8 8 8 9 9 8 9 10 10 11 12 12
7 8 7 7 3 9 11 10 9 7 5 4 6 7 7 6 9 6 6 8 6 5 5 4 4 4 5 5 1 3 5 5 5 6 6 7 7 8 8 9 9 9 9 8 8 8 8 8 9 8 7 8 9 8 9 9 9 10 10 10 11 11 12
9 8 10 8 2 5 8 7 8 8 5 6 5 9 8 8 9 7 5 7 5 5 3 2 3 3 4 7 6 5 6 7 7 7 7 7 8 8 9 9 9 9 9 9 9 9 8 10 8 7 8 9 8 9 8 9 10 9 10 11 10 10 11
7 6 9 6 8 7 8 10 7 5 7 3 8 7 7 6 7 5 5 3 5 3 3 3 1 4 4 5 7 7 7 8 8 8 8 8 8 8 8 9 9 9 9 9 10 11 10 10 9 8 9 10 10 9 9 10 9 9 9 10 11 11 10
6 8 9 4 2 8 9 7 4 8 1 5 7 7 7 6 4 4 4 4 4 3 2 1 2 2 3 4 3 3 5 6 7 8 8 8 8 8 8 9 9 10 10 10 11 11 10 10 9 9 9 9 9 10 11 9 9 9 9 10 10 11 11
7 4 2 6 2 6 6 4 6 1 6 5 3 1 4 4 3 3 2 2 5 4 2 2 2 4 4 3 3 5 5 6 7 8 9 9 10 10 9 9 9 9 10 12 12 13 12 12 10 10 9 10 11 12 10 9 9 9 9 9 10 11 12
7 9 7 1 3 2 4 4 1 2 6 4 3 3 3 4 3 2 2 2 3 4 4 3 3 4 3 3 5 5 5 6 7 7 8 10 10 10 10 9 9 10 11 12 12 13 13 13 12 10 10 11 12 11 10 9 10 10 10 9 9 11 12
3 5 6 10 9 7 6 5 4 4 4 5 4 3 4 3 3 3 2 2 2 2 2 4 3 4 4 5 4 4 4 6 6 7 8 9 10 10 11 10 10 10 10 11 12 13 14 13 12 12 12 11 12 11 11 11 10 9 10 10 10 10 11
9 7 2 3 5 6 4 5 6 7 6 6 5 3 3 3 3 3 3 4 5 4 5 5 5 4 5 4 4 4 5 5 5 7 8 8 9 10 11 11 11 11 11 11 12 13 13 13 13 13 12 12 12 12 12 12 11 11 10 10 10 11 12
8 10 11 8 7 8 8 8 7 6 8 10 9 7 6 6 6 6 6 5 5 4 4 2 4 4 5 4 4 5 5 5 6 6 7 8 9 10 11 11 11 11 11 12 13 14 14 14 14 14 14 13 13 13 12 12 11 11 11 12 11 13 12
8 7 6 6 10 9 7 9 10 11 9 10 11 10 10 10 9 8 8 7 6 6 4 3 4 5 4 4 4 6 6 6 6 6 7 8 10 11 11 11 12 13 14 14 14 14 13 13 14 14 15 14 13 13 12 12 11 11 11 11 12 12 11
9 6 6 7 7 7 8 8 4 6 8 10 11 12 12 12 11 8 9 9 7 6 5 4 4 4 4 5 6 7 6 6 6 7 9 10 10 10 11 13 14 14 15 15 15 16 14 13 14 14 15 15 14 13 13 12 12 11 11 11 12 11 11
11 11 11 11 9 9 9 9 9 8 7 8 10 9 10 10 9 9 10 9 9 7 6 6 4 3 4 6 6 7 7 7 7 8 9 10 11 11 12 12 14 15 16 17 17 17 15 14 13 14 15 15 14 15 14 13 12 11 10 10 11 11 11
6 8 12 12 10 10 9 10 10 10 9 9 10 10 10 9 10 9 10 9 8 8 6 6 6 4 5 7 6 7 8 8 8 9 10 11 10 11 11 12 14 14 15 16 15 15 16 16 15 14 15 14 14 15 14 14 14 13 12 10 10 11 11
Wind_Direction
189 211 227 229 251 238 168 215 213 224 252 248 228 231 217 219 223 216 167 122 114 119 146 149 132 113 95 83 83 64 53 55 50 47 37 29 40 109 163 209 229 224 203 193 202 192 202 197 207 194 219 209 198 187 184 189 187 185 185 182 183 184 183
177 228 241 297 233 270 242 203 206 195 10 285 295 239 200 214 208 199 175 150 151 170 137 153 131 120 109 90 66 69 56 48 46 47 41 33 23 61 180 165 184 200 211 206 204 194 203 202 201 203 215 215 203 193 187 187 186 191 188 185 184 185 184
154 194 228 212 258 278 292 313 359 252 185 226 232 283 204 212 208 209 176 157 168 191 141 163 157 128 110 94 79 64 58 50 47 44 43 37 33 22 40 150 156 156 199 179 212 196 204 211 206 209 201 202 202 200 194 188 192 191 193 190 188 187 187
151 197 194 207 203 219 237 265 236 237 285 215 208 226 236 211 204 221 167 159 173 122 128 121 104 106 83 86 72 65 58 50 47 45 36 36 32 27 24 4 37 102 147 154 199 210 214 231 232 213 214 212 206 195 193 198 195 193 192 192 187 189 190
138 202 189 225 203 197 205 236 224 193 243 283 255 212 244 214 217 217 185 172 124 107 105 114 105 74 82 89 94 76 65 52 51 45 40 36 35 32 31 21 25 48 12 161 188 218 191 197 287 304 173 229 252 220 206 199 193 198 195 197 192 191 192
217 72 50 20 351 5 317 211 222 204 212 222 200 236 226 245 224 226 228 177 123 123 152 115 115 111 108 84 103 77 59 59 50 47 45 38 36 36 25 15 19 28 39 67 137 193 176 177 187 210 263 249 231 219 189 197 202 200 200 198 198 191 194
127 79 56 354 339 317 320 320 287 248 218 214 212 238 192 225 260 92 34 121 138 102 119 149 126 120 101 87 82 81 75 62 51 49 45 45 42 36 31 25 20 21 43 53 62 59 71 108 140 165 225 251 262 248 197 196 191 206 207 200 204 191 191
98 120 75 31 330 309 267 253 281 247 218 268 245 231 336 272 219 218 140 171 140 114 114 134 131 120 116 102 86 78 76 67 60 51 54 47 38 36 38 35 27 16 23 38 63 66 63 51 85 107 112 83 270 298 249 200 213 198 198 208 221 197 193
190 180 189 203 183 230 238 232 194 313 309 285 296 311 283 256 246 256 199 158 152 143 153 141 154 135 120 109 87 81 75 70 60 62 60 54 47 38 35 36 31 22 21 26 25 31 45 74 47 32 39 61 87 72 306 289 215 201 204 190 228 202 200
198 194 196 195 182 206 209 108 20 254 285 302 290 251 220 272 314 341 276 115 128 137 151 148 126 108 99 89 99 88 76 62 56 52 64 62 53 42 37 33 33 25 18 22 24 19 21 32 55 57 32 31 54 41 251 210 317 282 213 215 217 206 208
16 34 21 8 280 158 201 163 216 123 241 302 271 296 275 238 229 159 100 143 142 154 145 139 135 139 126 124 87 73 74 80 75 62 52 59 62 52 40 36 35 33 23 22 22 18 19 23 25 33 49 40 34 43 35 85 130 297 279 222 215 217 189
21 21 3 19 336 185 114 141 155 179 272 307 252 228 252 5 313 174 127 139 151 143 145 142 135 111 111 98 108 107 91 67 63 69 71 66 60 58 48 36 31 32 28 22 21 21 19 18 16 22 24 34 33 17 13 13 35 96 2 308 260 227 192
278 355 26 10 358 5 68 325 352 180 83 256 238 285 345 333 286 185 151 147 144 151 139 148 134 129 118 83 90 96 81 99 92 64 50 53 52 53 51 44 36 29 31 26 19 18 18 15 15 14 12 14 20 25 13 0 7 25 2 338 294 256 266
243 220 247 156 275 217 249 240 202 234 242 180 235 189 2 16 112 130 154 168 145 137 145 141 126 115 115 117 70 110 112 86 77 73 54 47 45 44 45 43 37 33 31 30 24 20 15 16 12 13 9 5 5 11 19 9 16 12 12 1 5 5 295
192 212 221 233 235 260 255 215 213 220 226 214 219 230 105 124 153 165 156 158 158 125 119 120 125 151 126 132 114 87 83 78 58 62 55 43 40 41 39 38 36 32 31 27 26 22 20 14 13 11 3 3 0 1 3 17 19 17 27 4 331 329 19
200 174 220 203 233 241 249 233 209 216 208 217 183 222 172 215 153 160 163 175 163 129 134 126 158 178 160 131 126 118 32 77 90 52 44 35 37 37 32 30 31 28 26 25 21 21 17 16 17 8 3 1 1 1 359 4 7 27 21 322 319 330 347
228 136 192 208 215 237 235 231 218 202 210 234 207 196 150 297 148 187 190 202 146 164 180 161 169 170 151 150 142 109 92 348 77 83 65 30 30 36 26 27 29 26 21 20 22 16 15 13 21 17 5 358 1 1 1 358 1 3 359 342 346 342 312
181 132 185 192 223 227 226 31 180 189 200 185 190 165 192 155 245 22 45 81 131 145 186 187 158 210 123 136 114 62 130 151 71 88 78 41 44 28 29 20 28 21 16 17 16 12 9 7 16 19 8 357 360 355 353 357 7 6 358 349 345 344 331
241 151 168 215 223 217 72 87 70 75 55 132 217 49 169 151 132 131 146 142 135 156 165 235 260 96 97 188 191 173 125 83 263 58 73 63 46 41 31 24 22 19 11 9 8 8 5 1 7 5 10 4 356 350 350 3 358 360 1 354 354 339 333
267 205 199 215 199 85 116 84 110 82 184 182 186 181 156 169 192 158 155 170 132 115 147 142 152 159 225 164 230 275 140 108 95 309 57 26 36 41 31 22 21 19 12 4 1 359 350 358 1 1 1 0 359 353 341 358 352 352 356 354 353 350 341
253 224 223 217 101 176 139 176 153 185 178 178 208 221 193 180 186 182 162 153 158 170 160 155 158 178 199 218 174 195 140 134 97 6 25 22 17 33 29 16 17 26 9 355 357 345 349 355 359 355 349 352 359 356 349 349 347 345 356 353 349 346 341
244 263 241 210 194 232 194 156 148 142 90 46 73 299 120 151 146 157 143 151 146 152 159 137 124 178 221 223 187 166 140 163 136 302 341 355 17 18 7 354 355 24 12 349 341 346 337 352 358 343 343 346 350 357 351 347 341 344 355 351 346 341 336
203 233 257 238 239 82 72 112 116 98 107 143 55 252 215 157 149 161 159 171 159 177 158 139 205 230 225 167 103 96 77 59 46 314 2 330 349 343 339 335 341 8 359 338 326 330 332 348 347 328 337 339 346 353 351 342 338 340 345 344 339 336 332
248 245 233 240 252 164 138 119 132 126 118 124 223 225 198 137 158 159 172 150 155 168 126 143 250 249 221 102 74 59 38 24 330 346 348 341 328 324 320 314 349 345 329 311 316 324 332 345 323 317 330 335 344 346 345 336 338 338 342 341 333 327 327
223 240 254 259 141 112 140 143 125 130 123 227 225 236 120 151 123 133 140 134 140 131 162 202 229 192 339 43 29 1 339 326 348 354 340 323 325 318 320 326 347 317 309 311 320 324 324 316 308 320 335 327 331 334 333 333 338 337 338 335 329 329 326
243 219 238 237 257 88 131 134 133 125 167 205 226 82 115 118 119 120 120 111 137 140 225 183 266 5 353 331 334 345 342 343 336 335 337 341 335 326 319 325 309 304 303 310 308 309 309 298 308 326 326 320 320 316 317 319 329 333 331 326 326 327 326
244 237 245 240 244 150 181 132 147 152 240 65 99 131 111 132 118 140 139 190 140 191 174 195 291 285 310 325 330 332 327 330 330 331 339 333 335 332 321 307 313 313 311 311 309 305 304 310 325 322 316 314 311 311 304 311 316 321 325 323 325 323 321
240 218 222 231 4 121 150 163 238 157 243 103 147 135 157 134 152 185 165 181 187 145 223 284 255 285 299 284 279 311 310 308 318 318 323 327 325 322 316 317 316 323 313 306 302 302 308 315 311 307 304 303 301 300 301 304 306 311 315 318 320 320 317
248 252 344 70 124 145 163 195 82 51 122 128 105 357 30 158 158 146 268 141 146 202 209 218 249 254 248 274 306 302 316 304 308 323 323 322 319 316 322 321 328 314 307 309 308 304 302 301 305 305 301 292 292 291 296 303 301 303 305 306 313 316 317
280 289 288 61 256 128 169 195 113 144 150 156 171 210 216 213 278 133 216 118 173 155 165 226 225 244 280 286 285 293 308 314 316 314 311 311 315 317 317 318 323 323 311 305 301 303 304 304 301 295 292 292 289 292 298 298 299 291 291 303 312 311 311
277 252 217 227 221 210 211 248 180 187 186 188 188 206 220 252 183 197 202 215 180 220 216 219 242 263 263 273 288 307 299 298 299 299 308 309 309 312 311 314 316 309 311 304 303 303 301 303 302 300 296 293 295 296 294 289 288 296 305 305 301 300 304
241 253 98 49 337 306 277 231 219 195 207 210 203 242 253 229 208 215 207 178 218 210 220 214 220 235 259 277 289 284 294 298 305 304 298 301 303 303 306 305 305 305 301 303 302 301 298 300 298 297 295 292 288 288 289 292 295 296 291 291 297 299 302
245 255 265 259 236 225 242 250 245 240 207 209 212 214 226 205 221 239 236 224 243 223 243 201 236 256 275 281 275 280 293 291 298 300 302 298 297 298 295 299 301 299 302 298 298 296 296 297 296 293 292 290 290 288 286 283 283 282 288 294 293 293 296
242 253 257 240 249 240 214 222 241 242 236 247 251 215 218 234 229 230 243 230 223 246 253 247 243 254 266 273 298 298 293 293 295 301 301 301 297 296 297 298 301 299 297 297 295 294 291 291 290 290 289 287 285 284 283 280 281 282 286 288 290 290 289
264 293 298 319 313 298 291 291 288 307 275 247 243 245 250 249 243 237 237 239 225 218 235 259 279 285 278 288 295 287 295 311 309 298 296 298 299 298 301 300 297 296 296 295 294 291 291 290 287 285 284 281 280 279 277 277 277 278 282 284 284 285 289
282 283 289 297 288 281 286 288 283 263 255 249 251 258 251 246 245 232 231 236 248 244 243 236 239 262 273 298 304 307 307 298 298 299 299 301 303 301 297 292 291 293 294 294 294 294 292 289 287 285 283 281 278 275 273 270 266 263 263 270 277 282 286
287 320 310 302 295 286 276 273 261 257 258 257 254 249 246 232 226 225 226 230 236 246 247 256 254 268 298 285 283 291 291 298 301 304 305 297 291 289 288 288 293 295 296 295 293 293 291 290 288 283 281 281 282 282 281 275 270 268 265 265 273 278 283